This is the latest recevied weather packets stored in our database for station/object MM1PTT-13. If no packets are shown the sender has not sent any weather packets the latest 10 day(s).
| Time | Temp. | Humidity | Pressure | Rain* | Wind** | Luminosity | Snow |
|---|---|---|---|---|---|---|---|
| 1777473945 | 17.78° C | 43% | 999.7 hPa | 0 mm | - | 713 W/m² | - |
| 1777473645 | 17.22° C | 45% | 999.7 hPa | 0 mm | - | 805 W/m² | - |
| 1777473345 | 17.78° C | 46% | 1000 hPa | 0 mm | - | 829 W/m² | - |
| 1777473045 | 17.22° C | 44% | 1000 hPa | 0 mm | - | 840 W/m² | - |
| 1777472752 | 17.22° C | 45% | 999.7 hPa | 0 mm | - | 856 W/m² | - |
| 1777472447 | 17.78° C | 44% | 999.7 hPa | 0 mm | - | 878 W/m² | - |
| 1777472143 | 17.22° C | 44% | 1000 hPa | 0 mm | - | 887 W/m² | - |
| 1777471843 | 17.78° C | 44% | 1000 hPa | 0 mm | - | 909 W/m² | - |
| 1777471543 | 17.22° C | 46% | 999.7 hPa | 0 mm | - | 910 W/m² | - |
| 1777471243 | 17.78° C | 45% | 1000 hPa | 0 mm | - | 905 W/m² | - |
| 1777470943 | 17.78° C | 46% | 1000.3 hPa | 0 mm | - | 930 W/m² | - |
| 1777470643 | 17.22° C | 46% | 1000 hPa | 0 mm | - | 939 W/m² | - |
| 1777470344 | 17.22° C | 48% | 1000.3 hPa | 0 mm | - | 954 W/m² | - |
| 1777470048 | 17.22° C | 46% | 1000.3 hPa | 0 mm | - | 956 W/m² | - |
| 1777469744 | 17.22° C | 46% | 1000.3 hPa | 0 mm | - | 970 W/m² | - |
| 1777469444 | 17.22° C | 46% | 1000.3 hPa | 0 mm | - | 980 W/m² | - |
| 1777469144 | 17.22° C | 49% | 1000.3 hPa | 0 mm | - | 979 W/m² | - |
| 1777468844 | 16.67° C | 49% | 1000.3 hPa | 0 mm | - | 985 W/m² | - |
| 1777468542 | 16.67° C | 51% | 1000.7 hPa | 0 mm | - | 986 W/m² | - |
| 1777468242 | 16.67° C | 49% | 1000.3 hPa | 0 mm | - | 997 W/m² | - |
| 1777467943 | 16.67° C | 52% | 1000.7 hPa | 0 mm | - | 1002 W/m² | - |
| 1777467643 | 16.67° C | 49% | 1000.7 hPa | 0 mm | - | - | - |
| 1777467346 | 16.67° C | 51% | 1000.7 hPa | 0 mm | - | - | - |
| 1777467043 | 16.11° C | 51% | 1000.7 hPa | 0 mm | - | - | - |
| 1777466743 | 16.11° C | 50% | 1001 hPa | 0 mm | - | 989 W/m² | - |
* Rain latest hour (hover to see other rain measurements)
** Current wind speed in m/s (hover to see current wind gust speed)